Location: Newark
(15.5800°N, 32.5200°E)
Time: 12:25:19
(UTC+00:00)

Envisat - Visible Passes

Search period start: 21 January 2021 00:00
Search period end: 31 January 2021 00:00
Orbit: 764 x 766 km, 98.1° (Epoch: 20 January)

Date Brightness Start Highest point End Pass type
(mag) Time Alt. Az. Time Alt. Az. Time Alt. Az.
21 Jan 6.1 02:16:02 10° ENE 02:18:20 13° E 02:20:38 10° SE visible
21 Jan 3.4 03:52:35 10° N 03:57:15 39° WNW 04:01:56 10° SW visible
22 Jan 3.2 03:15:30 10° NNE 03:20:33 76° E 03:25:38 10° S visible
23 Jan 5.1 02:39:32 10° NE 02:43:46 27° E 02:48:01 10° SSE visible
24 Jan 3.1 03:40:59 10° N 03:45:54 53° WNW 03:50:49 10° SSW visible
25 Jan 3.7 03:04:13 10° NNE 03:09:10 55° E 03:14:08 10° S visible
26 Jan 5.6 02:28:42 10° NE 02:32:22 20° E 02:36:01 10° SE visible
27 Jan 2.9 03:29:28 10° N 03:34:31 72° WNW 03:39:34 10° SSW visible
27 Jan 6.3 16:11:28 10° SW 16:14:06 14° W 16:16:46 10° WNW visible
28 Jan 4.4 02:53:01 10° NNE 02:57:46 40° E 03:02:30 10° S visible
29 Jan 6.0 02:18:10 10° ENE 02:20:56 15° E 02:23:41 10° SE visible
29 Jan 3.6 03:55:15 10° N 03:59:49 35° WNW 04:04:24 10° SW visible
30 Jan 3.0 03:18:03 10° NNE 03:23:08 84° ESE 03:28:12 10° S visible
